Regional Weather Roundup
Issued by NWS

Home | Current Version | Previous Version | Graphics & Text | Print | Product List | Glossary On
Versions: 1 2 3 4 5 6 7 8 9 10 11 12 13 14 15 16 17 18 19 20 21 22 23 24 25 26 27 28 29 30 31 32 33 34 35 36 37 38 39 40 41 42 43 44 45 46 47 48 49 50
896
ASUS45 KABQ 101801
RWRNM
NEW MEXICO REGIONAL WEATHER ROUNDUP
NATIONAL WEATHER SERVICE ALBUQUERQUE NM
1100 AM MST WED FEB 10 2016

NOTE: "FAIR" MEANS FEW OR NO CLOUDS BELOW 12,000 FEET AGL WITH NO
       SIGNIFICANT WEATHER OR OBSTRUCTIONS TO VISION.

      THIS PRODUCT IS RELEASED AS TWO VERSIONS.  ONE VERSION NEAR
      THE TOP OF THE HOUR CONTAINING PRELIMINARY DATA FROM ALBUQUERQUE
      AND OTHER STATIONS.  A FINAL VERSION WITH ADDITIONAL DATA IS
      ISSUED ABOUT 10 MINUTES AFTER THE HOUR.

NMZ501-503-504-510>518-101900-
NORTHWEST PLATEAU/NORTHCENTRAL MOUNTAINS

CITY           SKY/WX    TMP DP  RH WIND       PRES   REMARKS
FARMINGTON     SUNNY     41  24  51 SE3       30.46F
6HR MIN TEMP:  22; 6HR MAX TEMP:  41;

SANTA FE       SUNNY     49  17  28 N13       30.42F
6HR MIN TEMP:  28; 6HR MAX TEMP:  49;

TAOS           SUNNY     43  18  36 E3        30.45F

$$
NMZ402-403-502-505>509-101900-
WESTCENTRAL MOUNTAINS/SOUTHWEST MOUNTAINS

CITY           SKY/WX    TMP DP  RH WIND       PRES   REMARKS
GALLUP         SUNNY     45  22  40 W6        30.47F
6HR MIN TEMP:  16; 6HR MAX TEMP:  45;

GRANTS         SUNNY     46  18  31 NW6       30.47F
SILVER CITY      N/A     59  16  18 S6        30.44F

$$
NMZ407-409-411-412-101900-
SOUTHERN DESERTS

CITY           SKY/WX    TMP DP  RH WIND       PRES   REMARKS
DEMING         SUNNY     61  20  20 E7        30.40F
6HR MIN TEMP:  27; 6HR MAX TEMP:  61;

HOLLOMAN AFB   SUNNY     56  20  24 VRB1      30.39F
ALAMOGORDO     SUNNY     57  19  23 CALM      30.41F
T OR C         SUNNY     54  19  25 CALM      30.41F
6HR MIN TEMP:  33; 6HR MAX TEMP:  54;


$$
NMZ519>523-101900-
CENTRAL VALLEYS/CENTRAL HIGHLANDS

CITY           SKY/WX    TMP DP  RH WIND       PRES   REMARKS
ALBUQUERQUE    SUNNY     48  18  30 NW7       30.45S
6HR MIN TEMP:  31; 6HR MAX TEMP:  48;

DOUBLE EAGLE   SUNNY     52  21  30 CALM      30.45F
MORIARTY ARPT  FAIR      55  19  24 NW6       30.42F
6HR MIN TEMP:  16; 6HR MAX TEMP:  55;

CLINES CORNERS SUNNY     48  19  31 NW22      30.38F
6HR MIN TEMP:  28; 6HR MAX TEMP:  48;

BELEN          FAIR      48  19  31 NE3       30.44F
6HR MIN TEMP:  20; 6HR MAX TEMP:  48;

SOCORRO        NOT AVBL

$$
NMZ524>526-539-540-101900-
SOUTHCENTRAL MOUNTAINS

CITY           SKY/WX    TMP DP  RH WIND       PRES   REMARKS
RUIDOSO          N/A     57  16  19 NW9G17    30.43F

$$
NMZ527>531-101900-
NORTHEAST HIGHLANDS/NORTHEAST PLAINS

CITY           SKY/WX    TMP DP  RH WIND       PRES   REMARKS
LAS VEGAS      SUNNY     59   0   9 SW3       30.35F
6HR MIN TEMP:  24; 6HR MAX TEMP:  60;

RATON          SUNNY     55  15  20 E5        30.29F
6HR MIN TEMP:  19; 6HR MAX TEMP:  55;

CLAYTON        SUNNY     73  -1   5 W8        30.21F
6HR MIN TEMP:  35; 6HR MAX TEMP:  73;


$$
NMZ532>537-101900-
EASTCENTRAL PLAINS

CITY           SKY/WX    TMP DP  RH WIND       PRES   REMARKS
TUCUMCARI        N/A     63  20  19 W10       30.24F
6HR MIN TEMP:  27; 6HR MAX TEMP:  63;

CANNON AFB     SUNNY     63  19  18 W17       30.27F
6HR MIN TEMP:  38; 6HR MAX TEMP:  63;

CLOVIS AIRPORT SUNNY     64  23  20 SW17G23   30.28F

$$
NMZ028-029-538-101900-
SOUTHEAST PLAINS

CITY           SKY/WX    TMP DP  RH WIND       PRES   REMARKS
ROSWELL        SUNNY     56  21  25 CALM      30.33F
6HR MIN TEMP:  27; 6HR MAX TEMP:  56;

ARTESIA        SUNNY     54  27  35 CALM      30.34F
CARLSBAD       SUNNY     57  26  30 SE3       30.33F
6HR MIN TEMP:  27; 6HR MAX TEMP:  57;

HOBBS          SUNNY     66  19  16 SW15      30.35F


$$




USA.gov is the U.S. government's official web portal to all federal, state and local government web resources and services.